Location: Chimay
(50.0486°N, 4.3171°E)
Time: 23:01:26
(UTC+00:00)

Cosmos 841 Rocket - Pass Details

Date: 08 August 2020
Orbit: 746 x 773 km, 74.0° (Epoch: 23 September)

Event Time Altitude Azimuth Distance (km) Brightness Sun altitude
Rises 21:32:16 0° 339° (NNW) 3,227 8.3 -17.7°
Reaches altitude 10° 21:34:44 10° 345° (NNW) 2,302 7.1 -17.9°
Maximum altitude 21:39:47 48° 59° (ENE) 997 4.0 -18.3°
Enters shadow 21:42:02 30° 116° (ESE) 1,363 4.3 -18.5°
